Weather in Gudauta

Abkhazia     43°06′04″N   40°38′03″E
temp.,
°C
wind,
m/s
gust,
m/s
humid.,
%
clouds,
%
prec.,
mm/h
press.,
hPa
HPBL,
m
10 august, wed
wed1000:00+26ene33680 0.0 1007196
03:00+26ne11610 0.0 100681
06:00+26n11574 0.0 100793
09:00+27nw456637 0.0 1006242
12:00+27wnw44645 0.0 1006227
15:00+28w566720 0.0 1005212
18:00+28wsw45702 0.0 1005157
21:00+27nnw12740 0.0 1006186
11 august, thu
thu1100:00+26ene337416 0.0 1006170
03:00+26e337153 0.0 1006150
06:00+25e447179 0.1 1007194
09:00+26ese346936 0.1 1008231
12:00+26sse22720 0.0 1007173
15:00+26w23730 0.5 1007222
18:00+27w33769 0.0 1008353
21:00+27e01765 0.0 1009236
12 august, fri
fri1200:00+25ene44805 0.2 1010225
03:00+25ene447868 0.4 1010177
06:00+25e33767 0.4 1011274
09:00+26se34789 0.4 1011266
12:00+25s338427 0.0 1011308
15:00+26wsw22782 0.0 1011325
18:00+27w33730 0.1 1010267
21:00+27nne11770 0.3 101162
13 august, sat
sat1300:00+26e33810 0.1 1011181
03:00+25ene22770 0.1 1011160
06:00+25ene22740 0.0 1010142
09:00+25s11740 0.0 1010139
12:00+25wsw33792 0.0 1009225
15:00+27wnw66780 0.0 1008312
18:00+27w78810 0.0 1006279
21:00+27wsw34830 0.0 1007268
14 august, sun
sun1400:00+27wsw12810 0.0 1007368
03:00+26se12828 0.0 1006360
06:00+26ese11810 0.0 1007164
09:00+26ssw22830 0.0 1007160
12:00+26wsw22770 0.0 1007234
15:00+27w55670 0.0 1006274
18:00+27w44720 0.0 1005152
21:00+27e11760 0.0 100758